Tracking 30101 objects as of 13-Dec-2024
HD Live streaming from Space Station
objects crossing your sky now

STARLINK-31299

Track STARLINK-31299 now!
10-day predictions
STARLINK-31299 is classified as:


NORAD ID: 59080
Int'l Code: 2024-041G
Perigee: 450.6 km
Apogee: 451.9 km
Inclination: 43.0 °
Period: 93.5 minutes
Semi major axis: 6822 km
RCS: Unknown
Launch date: February 29, 2024
Source: United States (US)
Launch site: AIR FORCE EASTERN TEST RANGE (AFETR)
Your satellite tracking list
Your tracking list is empty




NASA's NSSDC Master Catalog

Two Line Element Set (TLE):
1 59080U 24041G   24347.15885970  .00002267  00000-0  61552-4 0  9996
2 59080  42.9993 255.4950 0000940 269.4290  90.6459 15.40684863 46148
Source of the keplerian elements: AFSPC